Location: Condor
(52.3263°N, 114.5541°W)
Time: 04:07:08
(UTC+00:00)

YUBILEINY - Visible Passes

Search period start: 07 December 2023 00:00
Search period end: 17 December 2023 00:00
Orbit: 1478 x 1508 km, 82.5° (Epoch: 06 December)

Date Brightness Start Highest point End Pass type
(mag) Time Alt. Az. Time Alt. Az. Time Alt. Az.
07 Dec ? 00:29:11 10° N 00:32:42 13° NE 00:35:33 11° NE visible
07 Dec ? 02:24:40 10° N 02:31:29 38° NE 02:31:29 38° NE visible
07 Dec ? 04:21:32 10° NNW 04:27:25 45° NW 04:27:25 45° NW visible
07 Dec ? 06:20:23 10° NW 06:23:20 15° NW 06:23:20 15° NW visible
08 Dec ? 01:35:16 10° N 01:42:18 26° NE 01:42:38 26° ENE visible
08 Dec ? 03:31:46 10° N 03:38:34 59° N 03:38:34 59° N visible
08 Dec ? 05:29:30 10° NNW 05:34:30 25° WNW 05:34:30 25° WNW visible
08 Dec ? 14:46:30 10° ESE 14:52:33 21° ENE 14:58:34 10° NNE visible
09 Dec ? 00:46:05 10° N 00:51:24 17° NE 00:53:51 15° ENE visible
09 Dec ? 02:42:09 10° N 02:49:47 52° NE 02:49:47 52° NE visible
09 Dec ? 04:39:18 10° NNW 04:45:44 41° WNW 04:45:44 41° WNW visible
09 Dec ? 14:01:26 10° E 14:04:03 12° ENE 14:06:41 10° NE visible
10 Dec ? 01:52:39 10° N 02:00:30 35° ENE 02:01:07 34° ENE visible
10 Dec ? 03:49:25 10° NNW 03:57:04 66° NW 03:57:04 66° NW visible
10 Dec ? 05:47:49 10° NNW 05:53:01 19° WNW 05:53:01 19° WNW visible
11 Dec ? 01:03:18 10° N 01:09:54 23° NE 01:12:34 20° ENE visible
11 Dec ? 02:59:42 10° N 03:08:29 74° ENE 03:08:32 74° E visible
11 Dec ? 04:57:14 10° NNW 05:04:29 32° W 05:04:29 32° W visible
11 Dec ? 14:15:28 10° ESE 14:20:47 18° ENE 14:26:05 10° NNE visible
12 Dec ? 00:14:15 10° N 00:18:53 15° NE 00:23:29 10° ENE visible
12 Dec ? 02:10:07 10° N 02:18:31 47° ENE 02:20:11 43° E visible
12 Dec ? 04:07:08 10° NNW 04:15:28 52° W 04:16:10 51° WSW visible
12 Dec ? 06:06:59 10° NW 06:10:03 12° WNW 06:12:09 11° W visible
13 Dec ? 01:20:39 10° N 01:28:10 31° ENE 01:32:10 22° E visible
13 Dec ? 03:17:18 10° NNW 03:26:04 82° W 03:28:11 57° S visible
13 Dec ? 05:15:22 10° NNW 05:21:32 22° WNW 05:24:13 19° W visible
13 Dec ? 14:30:52 10° SE 14:37:40 26° ENE 14:44:27 10° NNE visible
14 Dec ? 00:31:22 10° N 00:37:27 20° NE 00:43:29 10° E visible
14 Dec ? 02:27:38 10° N 02:36:20 65° ENE 02:41:08 30° SSE visible
14 Dec ? 04:25:00 10° NNW 04:32:41 37° W 04:37:20 22° SW visible
14 Dec ? 13:44:38 10° E 13:49:03 15° ENE 13:53:27 10° NE visible
15 Dec ? 01:38:05 10° N 01:46:16 42° ENE 01:54:22 10° SE visible
15 Dec ? 03:35:00 10° NNW 03:43:30 60° W 03:51:57 10° SSW visible
15 Dec ? 05:34:02 10° NW 05:38:21 15° WNW 05:42:40 10° W visible
15 Dec ? 14:46:58 10° SE 14:54:44 37° E 15:02:28 10° NNE visible
16 Dec ? 00:48:40 10° N 00:55:49 27° NE 01:02:55 10° ESE visible
16 Dec ? 02:45:13 10° N 02:54:00 88° E 03:02:43 10° S visible
16 Dec ? 04:43:01 10° NNW 04:49:43 26° WNW 04:56:26 10° SW visible
16 Dec ? 13:59:37 10° ESE 14:05:52 22° ENE 14:12:05 10° NNE visible
